Time,TemperatureF,DewpointF,PressureIn,WindDirection,WindDirectionDegrees,WindSpeedMPH,WindSpeedGustMPH,Humidity,HourlyPrecipIn,Conditions,Clouds,dailyrainin,SolarRadiationWatts/m^2,SoftwareType,DateUTC
2013-05-09 00:00:00,33.7,31.1,30.12,NW,315,0.0,0.0,90,0.00,,,0.00,0,WeatherCatV1.15B25,2013-05-09 06:00:00,
2013-05-09 00:05:00,33.7,31.4,30.12,NW,315,0.0,0.0,91,0.00,,,0.00,0,WeatherCatV1.15B25,2013-05-09 06:05:00,
2013-05-09 00:10:00,33.7,31.4,30.12,NW,315,0.0,0.0,91,0.00,,,0.00,0,WeatherCatV1.15B25,2013-05-09 06:10:00,
2013-05-09 00:15:00,33.7,31.4,30.12,NW,315,0.0,0.0,91,0.00,,,0.00,0,WeatherCatV1.15B25,2013-05-09 06:15:00,
2013-05-09 00:20:00,33.8,31.5,30.12,NW,315,0.0,0.0,91,0.00,,,0.00,0,WeatherCatV1.15B25,2013-05-09 06:20:00,
2013-05-09 00:25:00,33.8,31.5,30.12,NW,315,0.0,0.0,91,0.00,,,0.00,0,WeatherCatV1.15B25,2013-05-09 06:25:00,
2013-05-09 00:30:00,33.8,31.5,30.12,NW,315,0.0,0.0,91,0.00,,,0.00,0,WeatherCatV1.15B25,2013-05-09 06:30:00,
2013-05-09 00:35:00,34.0,31.7,30.12,NW,315,0.0,0.0,91,0.00,,,0.00,0,WeatherCatV1.15B25,2013-05-09 06:35:00,
2013-05-09 00:40:00,34.0,31.7,30.12,NW,315,0.0,0.0,91,0.00,,,0.00,0,WeatherCatV1.15B25,2013-05-09 06:40:00,
2013-05-09 00:45:00,34.0,31.7,30.12,NW,315,0.0,0.0,91,0.00,,,0.00,0,WeatherCatV1.15B25,2013-05-09 06:45:00,
2013-05-09 00:50:00,33.8,31.5,30.12,NW,315,0.0,0.0,91,0.00,,,0.00,0,WeatherCatV1.15B25,2013-05-09 06:50:00,
2013-05-09 00:55:00,33.8,31.5,30.12,NW,315,0.0,0.0,91,0.00,,,0.00,0,WeatherCatV1.15B25,2013-05-09 06:55:00,
2013-05-09 01:00:00,33.8,31.5,30.12,NW,315,0.0,0.0,91,0.00,,,0.00,0,WeatherCatV1.15B25,2013-05-09 07:00:00,
2013-05-09 01:05:00,34.0,31.9,30.12,NW,315,0.0,0.0,92,0.00,,,0.00,0,WeatherCatV1.15B25,2013-05-09 07:05:00,
2013-05-09 01:10:00,34.0,31.9,30.12,NW,315,0.0,0.0,92,0.00,,,0.00,0,WeatherCatV1.15B25,2013-05-09 07:10:00,
2013-05-09 01:15:00,34.0,31.9,30.12,NW,315,0.0,0.0,92,0.00,,,0.00,0,WeatherCatV1.15B25,2013-05-09 07:15:00,
2013-05-09 01:20:00,34.1,32.0,30.11,NW,315,0.0,0.0,92,0.00,,,0.00,0,WeatherCatV1.15B25,2013-05-09 07:20:00,
2013-05-09 01:25:00,34.1,32.0,30.11,NW,315,0.0,0.0,92,0.00,,,0.00,0,WeatherCatV1.15B25,2013-05-09 07:25:00,
2013-05-09 01:30:00,34.1,32.0,30.11,NW,315,0.0,0.0,92,0.00,,,0.00,0,WeatherCatV1.15B25,2013-05-09 07:30:00,
2013-05-09 01:35:00,34.1,32.0,30.11,NW,315,0.0,0.0,92,0.00,,,0.00,0,WeatherCatV1.15B25,2013-05-09 07:35:00,
2013-05-09 01:40:00,34.1,32.0,30.11,NW,315,0.0,0.0,92,0.00,,,0.00,0,WeatherCatV1.15B25,2013-05-09 07:40:00,
2013-05-09 01:45:00,34.1,32.0,30.11,NW,315,0.0,0.0,92,0.00,,,0.00,0,WeatherCatV1.15B25,2013-05-09 07:45:00,
2013-05-09 01:50:00,34.1,32.0,30.11,NW,315,0.0,0.0,92,0.00,,,0.00,0,WeatherCatV1.15B25,2013-05-09 07:50:00,
2013-05-09 01:55:00,34.1,32.0,30.11,NW,315,0.0,0.0,92,0.00,,,0.00,0,WeatherCatV1.15B25,2013-05-09 07:55:00,
2013-05-09 02:00:00,34.0,31.9,30.11,NW,315,0.0,0.0,92,0.00,,,0.00,0,WeatherCatV1.15B25,2013-05-09 08:00:00,
2013-05-09 02:05:00,34.0,31.9,30.11,NW,315,0.0,0.0,92,0.00,,,0.00,0,WeatherCatV1.15B25,2013-05-09 08:05:00,
2013-05-09 02:10:00,34.0,31.9,30.11,NW,315,0.0,0.0,92,0.00,,,0.00,0,WeatherCatV1.15B25,2013-05-09 08:10:00,
2013-05-09 02:15:00,34.0,31.9,30.11,NW,315,0.0,0.0,92,0.00,,,0.00,0,WeatherCatV1.15B25,2013-05-09 08:15:00,
2013-05-09 02:20:00,34.0,31.9,30.11,NW,315,0.0,0.0,92,0.00,,,0.00,0,WeatherCatV1.15B25,2013-05-09 08:20:00,
2013-05-09 02:25:00,34.0,31.9,30.11,NW,315,0.0,0.0,92,0.00,,,0.00,0,WeatherCatV1.15B25,2013-05-09 08:25:00,
2013-05-09 02:30:00,34.0,31.9,30.11,NW,315,0.0,0.0,92,0.00,,,0.00,0,WeatherCatV1.15B25,2013-05-09 08:30:00,
2013-05-09 02:35:00,33.5,31.4,30.10,NW,315,1.0,3.0,92,0.00,,,0.00,0,WeatherCatV1.15B25,2013-05-09 08:35:00,
2013-05-09 02:40:00,33.5,31.4,30.10,NW,315,1.0,3.0,92,0.00,,,0.00,0,WeatherCatV1.15B25,2013-05-09 08:40:00,
2013-05-09 02:45:00,33.5,31.4,30.10,NW,315,1.0,3.0,92,0.00,,,0.00,0,WeatherCatV1.15B25,2013-05-09 08:45:00,
2013-05-09 02:50:00,33.7,31.6,30.10,NW,315,0.0,3.0,92,0.00,,,0.00,0,WeatherCatV1.15B25,2013-05-09 08:50:00,
2013-05-09 02:55:00,33.7,31.6,30.10,NW,315,0.0,3.0,92,0.00,,,0.00,0,WeatherCatV1.15B25,2013-05-09 08:55:00,
2013-05-09 03:00:00,33.7,31.6,30.10,NW,315,0.0,3.0,92,0.00,,,0.00,0,WeatherCatV1.15B25,2013-05-09 09:00:00,
2013-05-09 03:05:00,33.5,31.7,30.11,NW,315,0.0,0.0,93,0.00,,,0.00,0,WeatherCatV1.15B25,2013-05-09 09:05:00,
2013-05-09 03:10:00,33.5,31.7,30.11,NW,315,0.0,0.0,93,0.00,,,0.00,0,WeatherCatV1.15B25,2013-05-09 09:10:00,
2013-05-09 03:15:00,33.5,31.7,30.11,NW,315,0.0,0.0,93,0.00,,,0.00,0,WeatherCatV1.15B25,2013-05-09 09:15:00,
2013-05-09 03:20:00,33.5,31.7,30.11,NW,315,0.0,0.0,93,0.00,,,0.00,0,WeatherCatV1.15B25,2013-05-09 09:20:00,
2013-05-09 03:25:00,33.5,31.7,30.11,NW,315,0.0,0.0,93,0.00,,,0.00,0,WeatherCatV1.15B25,2013-05-09 09:25:00,
2013-05-09 03:30:00,33.5,31.7,30.11,NW,315,0.0,0.0,93,0.00,,,0.00,0,WeatherCatV1.15B25,2013-05-09 09:30:00,
2013-05-09 03:35:00,33.7,31.9,30.11,NW,315,0.0,1.0,93,0.00,,,0.00,0,WeatherCatV1.15B25,2013-05-09 09:35:00,
2013-05-09 03:40:00,33.7,31.9,30.11,NW,315,0.0,1.0,93,0.00,,,0.00,0,WeatherCatV1.15B25,2013-05-09 09:40:00,
2013-05-09 03:45:00,33.7,31.9,30.11,NW,315,0.0,1.0,93,0.00,,,0.00,0,WeatherCatV1.15B25,2013-05-09 09:45:00,
2013-05-09 03:50:00,33.4,31.6,30.11,NW,315,0.0,0.0,93,0.00,,,0.00,0,WeatherCatV1.15B25,2013-05-09 09:50:00,
2013-05-09 03:55:00,33.4,31.6,30.11,NW,315,0.0,0.0,93,0.00,,,0.00,0,WeatherCatV1.15B25,2013-05-09 09:55:00,
2013-05-09 04:00:00,33.4,31.6,30.11,NW,315,0.0,0.0,93,0.00,,,0.00,0,WeatherCatV1.15B25,2013-05-09 10:00:00,
2013-05-09 04:05:00,33.2,31.4,30.11,NW,315,0.0,0.0,93,0.00,,,0.00,0,WeatherCatV1.15B25,2013-05-09 10:05:00,
2013-05-09 04:10:00,33.2,31.4,30.11,NW,315,0.0,0.0,93,0.00,,,0.00,0,WeatherCatV1.15B25,2013-05-09 10:10:00,
2013-05-09 04:15:00,33.2,31.4,30.11,NW,315,0.0,0.0,93,0.00,,,0.00,0,WeatherCatV1.15B25,2013-05-09 10:15:00,
2013-05-09 04:20:00,33.1,31.3,30.11,NW,315,0.0,0.0,93,0.00,,,0.00,0,WeatherCatV1.15B25,2013-05-09 10:20:00,
2013-05-09 04:25:00,33.1,31.3,30.11,NW,315,0.0,0.0,93,0.00,,,0.00,0,WeatherCatV1.15B25,2013-05-09 10:25:00,
2013-05-09 04:30:00,33.1,31.3,30.11,NW,315,0.0,0.0,93,0.00,,,0.00,0,WeatherCatV1.15B25,2013-05-09 10:30:00,
2013-05-09 04:35:00,33.1,31.3,30.11,NW,315,0.0,0.0,93,0.00,,,0.00,0,WeatherCatV1.15B25,2013-05-09 10:35:00,
2013-05-09 04:40:00,33.1,31.3,30.11,NW,315,0.0,0.0,93,0.00,,,0.00,0,WeatherCatV1.15B25,2013-05-09 10:40:00,
2013-05-09 04:45:00,33.1,31.3,30.11,NW,315,0.0,0.0,93,0.00,,,0.00,0,WeatherCatV1.15B25,2013-05-09 10:45:00,
2013-05-09 04:50:00,33.1,31.3,30.11,NW,315,0.0,0.0,93,0.00,,,0.00,0,WeatherCatV1.15B25,2013-05-09 10:50:00,
2013-05-09 04:55:00,33.1,31.3,30.11,NW,315,0.0,0.0,93,0.00,,,0.00,0,WeatherCatV1.15B25,2013-05-09 10:55:00,
2013-05-09 05:07:00,33.1,31.3,30.11,NW,315,0.0,0.0,93,0.00,,,0.00,0,WeatherCatV1.15B25,2013-05-09 11:07:00,
2013-05-09 05:12:00,33.2,31.4,30.11,NW,318,0.0,0.0,93,0.00,,,0.03,0,WeatherCatV1.15B25,2013-05-09 11:12:00,
2013-05-09 05:17:00,33.2,31.4,30.11,NW,318,0.0,0.0,93,0.00,,,0.03,0,WeatherCatV1.15B25,2013-05-09 11:17:00,
2013-05-09 05:22:00,33.2,31.4,30.11,NW,318,0.0,0.0,93,0.00,,,0.03,0,WeatherCatV1.15B25,2013-05-09 11:22:00,
2013-05-09 05:27:00,33.2,31.4,30.11,NW,318,0.0,0.0,93,0.00,,,0.03,0,WeatherCatV1.15B25,2013-05-09 11:27:00,
2013-05-09 05:32:00,33.1,31.3,30.11,NW,318,0.0,0.0,93,0.00,,,0.03,0,WeatherCatV1.15B25,2013-05-09 11:32:00,
2013-05-09 05:37:00,33.1,31.3,30.11,NW,318,0.0,0.0,93,0.00,,,0.03,0,WeatherCatV1.15B25,2013-05-09 11:37:00,
2013-05-09 05:42:00,33.2,31.4,30.11,NW,318,0.0,0.0,93,0.00,,,0.03,0,WeatherCatV1.15B25,2013-05-09 11:42:00,
2013-05-09 05:47:00,33.2,31.4,30.11,NW,318,0.0,0.0,93,0.00,,,0.03,0,WeatherCatV1.15B25,2013-05-09 11:47:00,
2013-05-09 05:52:00,33.1,31.3,30.11,NW,318,0.0,0.0,93,0.00,,,0.03,0,WeatherCatV1.15B25,2013-05-09 11:52:00,
2013-05-09 05:57:00,33.1,31.3,30.11,NW,318,0.0,0.0,93,0.00,,,0.03,0,WeatherCatV1.15B25,2013-05-09 11:57:00,
2013-05-09 06:02:00,33.1,31.3,30.12,NW,318,0.0,0.0,93,0.00,,,0.03,0,WeatherCatV1.15B25,2013-05-09 12:02:00,
2013-05-09 06:07:00,32.9,31.1,30.12,NW,318,0.0,0.0,93,0.00,,,0.03,0,WeatherCatV1.15B25,2013-05-09 12:07:00,
2013-05-09 06:12:00,32.9,31.1,30.12,NW,318,0.0,0.0,93,0.00,,,0.03,5,WeatherCatV1.15B25,2013-05-09 12:12:00,
2013-05-09 06:17:00,32.9,31.1,30.12,NW,318,0.0,0.0,93,0.00,,,0.03,9,WeatherCatV1.15B25,2013-05-09 12:17:00,
2013-05-09 06:22:00,32.8,31.0,30.12,NW,318,0.0,0.0,93,0.00,,,0.03,9,WeatherCatV1.15B25,2013-05-09 12:22:00,
2013-05-09 06:27:00,32.8,31.0,30.12,NW,318,0.0,0.0,93,0.00,,,0.03,12,WeatherCatV1.15B25,2013-05-09 12:27:00,
2013-05-09 06:32:00,32.8,31.0,30.12,NW,318,0.0,0.0,93,0.00,,,0.03,16,WeatherCatV1.15B25,2013-05-09 12:32:00,
2013-05-09 06:37:00,32.8,31.0,30.12,NW,318,0.0,0.0,93,0.00,,,0.03,18,WeatherCatV1.15B25,2013-05-09 12:37:00,
2013-05-09 06:42:00,32.9,31.1,30.12,NW,318,0.0,0.0,93,0.00,,,0.03,19,WeatherCatV1.15B25,2013-05-09 12:42:00,
2013-05-09 06:47:00,32.8,31.0,30.12,NW,318,0.0,0.0,93,0.00,,,0.03,21,WeatherCatV1.15B25,2013-05-09 12:47:00,
2013-05-09 06:52:00,32.8,31.0,30.12,NW,318,0.0,0.0,93,0.00,,,0.03,23,WeatherCatV1.15B25,2013-05-09 12:52:00,
2013-05-09 06:57:00,32.8,31.0,30.12,NW,318,0.0,0.0,93,0.00,,,0.03,21,WeatherCatV1.15B25,2013-05-09 12:57:00,
2013-05-09 07:02:00,32.8,31.0,30.13,NW,318,0.0,0.0,93,0.00,,,0.03,21,WeatherCatV1.15B25,2013-05-09 13:02:00,
2013-05-09 07:07:00,32.8,31.0,30.13,NW,318,0.0,0.0,93,0.00,,,0.03,23,WeatherCatV1.15B25,2013-05-09 13:07:00,
2013-05-09 07:12:00,32.8,31.0,30.13,NW,318,0.0,0.0,93,0.00,,,0.03,25,WeatherCatV1.15B25,2013-05-09 13:12:00,
2013-05-09 07:17:00,32.8,31.0,30.14,NW,318,0.0,0.0,93,0.00,,,0.03,28,WeatherCatV1.15B25,2013-05-09 13:17:00,
2013-05-09 07:22:00,32.8,31.0,30.14,NW,318,0.0,0.0,93,0.00,,,0.03,33,WeatherCatV1.15B25,2013-05-09 13:22:00,
2013-05-09 07:27:00,32.8,31.0,30.14,NW,318,0.0,0.0,93,0.00,,,0.03,35,WeatherCatV1.15B25,2013-05-09 13:27:00,
2013-05-09 07:32:00,32.8,31.0,30.14,NW,318,0.0,0.0,93,0.00,,,0.03,35,WeatherCatV1.15B25,2013-05-09 13:32:00,
2013-05-09 07:37:00,32.8,31.0,30.14,NW,318,0.0,0.0,93,0.00,,,0.03,28,WeatherCatV1.15B25,2013-05-09 13:37:00,
2013-05-09 07:42:00,32.8,31.0,30.14,NW,318,0.0,0.0,93,0.00,,,0.03,30,WeatherCatV1.15B25,2013-05-09 13:42:00,
2013-05-09 07:47:00,32.8,31.0,30.14,NW,318,0.0,0.0,93,0.00,,,0.03,37,WeatherCatV1.15B25,2013-05-09 13:47:00,
2013-05-09 07:52:00,32.8,31.0,30.14,NW,318,0.0,0.0,93,0.00,,,0.03,42,WeatherCatV1.15B25,2013-05-09 13:52:00,
2013-05-09 07:57:00,32.7,30.9,30.14,NW,318,0.0,0.0,93,0.00,,,0.03,35,WeatherCatV1.15B25,2013-05-09 13:57:00,
2013-05-09 08:02:00,32.7,30.9,30.15,NW,318,0.0,0.0,93,0.00,,,0.03,39,WeatherCatV1.15B25,2013-05-09 14:02:00,
2013-05-09 08:07:00,32.7,30.9,30.15,NW,318,0.0,0.0,93,0.00,,,0.03,44,WeatherCatV1.15B25,2013-05-09 14:07:00,
2013-05-09 08:12:00,32.7,30.9,30.15,NW,318,0.0,0.0,93,0.00,,,0.03,48,WeatherCatV1.15B25,2013-05-09 14:12:00,
2013-05-09 08:17:00,32.7,31.2,30.15,NW,318,0.0,0.0,94,0.00,,,0.03,46,WeatherCatV1.15B25,2013-05-09 14:17:00,
2013-05-09 08:22:00,32.8,31.3,30.15,NW,318,0.0,0.0,94,0.00,,,0.03,48,WeatherCatV1.15B25,2013-05-09 14:22:00,
2013-05-09 08:27:00,32.8,31.3,30.15,NW,318,0.0,0.0,94,0.00,,,0.03,46,WeatherCatV1.15B25,2013-05-09 14:27:00,
2013-05-09 08:32:00,32.8,31.3,30.15,NW,318,0.0,0.0,94,0.00,,,0.03,62,WeatherCatV1.15B25,2013-05-09 14:32:00,
2013-05-09 08:37:00,32.9,31.4,30.15,NW,316,0.0,0.0,94,0.00,,,0.03,70,WeatherCatV1.15B25,2013-05-09 14:37:00,
2013-05-09 08:42:00,33.1,31.6,30.15,NW,318,0.0,0.0,94,0.00,,,0.03,69,WeatherCatV1.15B25,2013-05-09 14:42:00,
2013-05-09 08:47:00,33.2,31.7,30.15,NW,318,0.0,0.0,94,0.00,,,0.04,67,WeatherCatV1.15B25,2013-05-09 14:47:00,
2013-05-09 08:52:00,33.4,31.9,30.15,NW,318,2.0,2.0,94,0.00,,,0.04,67,WeatherCatV1.15B25,2013-05-09 14:52:00,
2013-05-09 08:57:00,33.5,32.0,30.15,NW,318,0.0,0.0,94,0.00,,,0.04,72,WeatherCatV1.15B25,2013-05-09 14:57:00,
2013-05-09 09:02:00,33.7,32.2,30.16,NW,318,0.0,0.0,94,0.04,,,0.05,76,WeatherCatV1.15B25,2013-05-09 15:02:00,
2013-05-09 09:07:00,33.7,32.2,30.16,NW,318,0.0,0.0,94,0.04,,,0.05,60,WeatherCatV1.15B25,2013-05-09 15:07:00,
2013-05-09 09:12:00,33.5,32.0,30.16,NW,318,0.0,0.0,94,0.04,,,0.05,63,WeatherCatV1.15B25,2013-05-09 15:12:00,
2013-05-09 09:17:00,33.4,31.9,30.16,NW,318,0.0,0.0,94,0.04,,,0.06,62,WeatherCatV1.15B25,2013-05-09 15:17:00,
2013-05-09 09:22:00,33.4,31.9,30.16,NW,318,0.0,0.0,94,0.04,,,0.06,58,WeatherCatV1.15B25,2013-05-09 15:22:00,
2013-05-09 09:27:00,33.4,31.9,30.16,NW,318,0.0,0.0,94,0.04,,,0.06,70,WeatherCatV1.15B25,2013-05-09 15:27:00,
2013-05-09 09:32:00,33.4,31.9,30.17,NW,318,0.0,0.0,94,0.00,,,0.06,74,WeatherCatV1.15B25,2013-05-09 15:32:00,
2013-05-09 09:37:00,33.2,31.7,30.17,NW,318,0.0,0.0,94,0.00,,,0.06,70,WeatherCatV1.15B25,2013-05-09 15:37:00,
2013-05-09 09:42:00,33.4,31.9,30.17,NW,318,0.0,0.0,94,0.00,,,0.07,72,WeatherCatV1.15B25,2013-05-09 15:42:00,
2013-05-09 09:47:00,33.2,31.7,30.17,NW,318,2.0,2.0,94,0.00,,,0.07,56,WeatherCatV1.15B25,2013-05-09 15:47:00,
2013-05-09 09:52:00,33.2,31.7,30.17,NW,318,0.0,0.0,94,0.00,,,0.07,53,WeatherCatV1.15B25,2013-05-09 15:52:00,
2013-05-09 09:57:00,33.1,31.3,30.17,NW,306,2.0,3.0,93,0.00,,,0.07,44,WeatherCatV1.15B25,2013-05-09 15:57:00,
2013-05-09 10:02:00,32.9,31.1,30.18,SSE,148,2.0,5.0,93,0.04,,,0.08,51,WeatherCatV1.15B25,2013-05-09 16:02:00,
2013-05-09 10:07:00,32.8,31.0,30.18,ESE,121,3.0,7.0,93,0.04,,,0.08,53,WeatherCatV1.15B25,2013-05-09 16:07:00,
2013-05-09 10:12:00,32.7,30.9,30.18,SE,130,5.0,7.0,93,0.04,,,0.08,84,WeatherCatV1.15B25,2013-05-09 16:12:00,
2013-05-09 10:17:00,32.7,30.9,30.18,SE,130,5.0,6.0,93,0.00,,,0.08,46,WeatherCatV1.15B25,2013-05-09 16:17:00,
2013-05-09 10:22:00,32.5,30.7,30.18,SE,130,1.0,5.0,93,0.00,,,0.09,49,WeatherCatV1.15B25,2013-05-09 16:22:00,
2013-05-09 10:27:00,32.8,31.3,30.18,SE,130,2.0,5.0,94,0.00,,,0.09,49,WeatherCatV1.15B25,2013-05-09 16:27:00,
2013-05-09 10:32:00,33.1,31.6,30.19,SE,130,0.0,0.0,94,0.00,,,0.09,70,WeatherCatV1.15B25,2013-05-09 16:32:00,
2013-05-09 10:37:00,33.4,31.9,30.19,SE,130,0.0,0.0,94,0.00,,,0.09,79,WeatherCatV1.15B25,2013-05-09 16:37:00,
2013-05-09 10:42:00,33.5,32.0,30.19,SE,130,0.0,0.0,94,0.00,,,0.10,90,WeatherCatV1.15B25,2013-05-09 16:42:00,
2013-05-09 10:47:00,34.0,32.5,30.19,SE,130,0.0,0.0,94,0.00,,,0.10,95,WeatherCatV1.15B25,2013-05-09 16:47:00,
2013-05-09 10:52:00,34.1,32.6,30.19,SE,130,0.0,0.0,94,0.00,,,0.10,90,WeatherCatV1.15B25,2013-05-09 16:52:00,
2013-05-09 10:57:00,34.3,32.8,30.19,SE,130,0.0,0.0,94,0.04,,,0.11,100,WeatherCatV1.15B25,2013-05-09 16:57:00,
2013-05-09 11:02:00,34.6,33.1,30.19,SE,130,0.0,0.0,94,0.04,,,0.11,151,WeatherCatV1.15B25,2013-05-09 17:02:00,
2013-05-09 11:07:00,34.9,33.4,30.19,SE,130,0.0,0.0,94,0.06,,,0.12,172,WeatherCatV1.15B25,2013-05-09 17:07:00,
2013-05-09 11:12:00,35.3,33.7,30.19,SE,130,0.0,0.0,94,0.06,,,0.12,171,WeatherCatV1.15B25,2013-05-09 17:12:00,
2013-05-09 11:17:00,35.6,34.0,30.19,SE,130,0.0,0.0,94,0.05,,,0.13,232,WeatherCatV1.15B25,2013-05-09 17:17:00,
2013-05-09 11:22:00,36.0,34.4,30.19,SE,130,0.0,0.0,94,0.05,,,0.13,234,WeatherCatV1.15B25,2013-05-09 17:22:00,
2013-05-09 11:27:00,36.5,34.7,30.19,SE,130,0.0,0.0,93,0.07,,,0.14,355,WeatherCatV1.15B25,2013-05-09 17:27:00,
2013-05-09 11:32:00,36.8,35.0,30.20,SE,130,1.0,3.0,93,0.08,,,0.14,449,WeatherCatV1.15B25,2013-05-09 17:32:00,
2013-05-09 11:37:00,37.3,35.5,30.20,SE,130,2.0,5.0,93,0.12,,,0.16,452,WeatherCatV1.15B25,2013-05-09 17:37:00,
2013-05-09 11:42:00,37.9,36.1,30.20,SE,130,4.0,5.0,93,0.11,,,0.16,482,WeatherCatV1.15B25,2013-05-09 17:42:00,
2013-05-09 11:47:00,38.0,35.9,30.20,SE,130,1.0,3.0,92,0.15,,,0.18,415,WeatherCatV1.15B25,2013-05-09 17:47:00,
2013-05-09 11:52:00,38.8,36.4,30.20,SE,130,6.0,6.0,91,0.11,,,0.19,695,WeatherCatV1.15B25,2013-05-09 17:52:00,
2013-05-09 11:57:00,39.1,35.6,30.20,SE,131,3.0,6.0,87,0.17,,,0.20,869,WeatherCatV1.15B25,2013-05-09 17:57:00,
2013-05-09 12:02:00,40.1,36.5,30.19,SE,128,5.0,7.0,87,0.15,,,0.21,732,WeatherCatV1.15B25,2013-05-09 18:02:00,
2013-05-09 12:07:00,40.5,36.4,30.19,SE,128,5.0,6.0,85,0.14,,,0.22,665,WeatherCatV1.15B25,2013-05-09 18:07:00,
2013-05-09 12:12:00,40.8,36.9,30.19,SE,128,3.0,7.0,86,0.11,,,0.23,644,WeatherCatV1.15B25,2013-05-09 18:12:00,
2013-05-09 12:17:00,41.1,36.3,30.18,SE,128,3.0,6.0,83,0.08,,,0.24,426,WeatherCatV1.15B25,2013-05-09 18:17:00,
2013-05-09 12:22:00,41.6,36.5,30.18,SE,136,3.0,7.0,82,0.08,,,0.24,1065,WeatherCatV1.15B25,2013-05-09 18:22:00,
2013-05-09 12:27:00,41.9,35.9,30.18,NE,42,3.0,6.0,79,0.05,,,0.24,1065,WeatherCatV1.15B25,2013-05-09 18:27:00,
2013-05-09 12:32:00,42.3,36.6,30.18,ESE,120,6.0,10.0,80,0.04,,,0.25,496,WeatherCatV1.15B25,2013-05-09 18:32:00,
2013-05-09 12:37:00,42.1,35.1,30.18,SE,144,5.0,11.0,76,0.04,,,0.25,348,WeatherCatV1.15B25,2013-05-09 18:37:00,
2013-05-09 12:42:00,42.3,35.6,30.18,SSE,148,0.0,2.0,77,0.04,,,0.25,380,WeatherCatV1.15B25,2013-05-09 18:42:00,
2013-05-09 12:47:00,42.6,34.2,30.18,East,86,0.0,7.0,72,0.04,,,0.25,366,WeatherCatV1.15B25,2013-05-09 18:47:00,
2013-05-09 12:52:00,42.8,34.1,30.18,NE,42,7.0,7.0,71,0.00,,,0.25,412,WeatherCatV1.15B25,2013-05-09 18:52:00,
2013-05-09 12:57:00,43.2,36.5,30.18,NE,42,3.0,10.0,77,0.00,,,0.25,1128,WeatherCatV1.15B25,2013-05-09 18:57:00,
2013-05-09 13:02:00,43.9,36.2,30.18,SE,128,12.0,13.0,74,0.00,,,0.25,1216,WeatherCatV1.15B25,2013-05-09 19:02:00,
2013-05-09 13:07:00,44.6,35.8,30.18,ESE,114,6.0,10.0,71,0.00,,,0.25,1320,WeatherCatV1.15B25,2013-05-09 19:07:00,
2013-05-09 13:12:00,44.8,34.5,30.18,East,100,3.0,14.0,67,0.00,,,0.25,1258,WeatherCatV1.15B25,2013-05-09 19:12:00,
2013-05-09 13:17:00,44.9,33.9,30.18,East,100,12.0,15.0,65,0.00,,,0.25,405,WeatherCatV1.15B25,2013-05-09 19:17:00,
2013-05-09 13:22:00,44.1,33.5,30.18,East,79,11.0,12.0,66,0.00,,,0.25,255,WeatherCatV1.15B25,2013-05-09 19:22:00,
2013-05-09 13:27:00,43.6,32.2,30.18,NE,37,6.0,11.0,64,0.00,,,0.25,148,WeatherCatV1.15B25,2013-05-09 19:27:00,
2013-05-09 13:32:00,43.2,31.9,30.18,NE,49,5.0,6.0,64,0.00,,,0.25,179,WeatherCatV1.15B25,2013-05-09 19:32:00,
2013-05-09 13:37:00,43.1,32.9,30.18,NNE,28,2.0,10.0,67,0.00,,,0.25,343,WeatherCatV1.15B25,2013-05-09 19:37:00,
2013-05-09 13:42:00,43.5,31.8,30.18,East,90,4.0,7.0,63,0.00,,,0.25,399,WeatherCatV1.15B25,2013-05-09 19:42:00,
2013-05-09 13:47:00,43.8,32.4,30.18,ENE,66,5.0,8.0,64,0.00,,,0.25,225,WeatherCatV1.15B25,2013-05-09 19:47:00,
2013-05-09 13:52:00,43.6,32.6,30.18,East,79,3.0,5.0,65,0.00,,,0.25,194,WeatherCatV1.15B25,2013-05-09 19:52:00,
2013-05-09 13:57:00,43.2,33.4,30.18,East,90,6.0,7.0,68,0.00,,,0.25,308,WeatherCatV1.15B25,2013-05-09 19:57:00,
2013-05-09 14:02:00,43.2,34.1,30.18,East,92,3.0,3.0,70,0.00,,,0.25,218,WeatherCatV1.15B25,2013-05-09 20:02:00,
2013-05-09 14:07:00,43.3,34.5,30.18,East,99,3.0,6.0,71,0.00,,,0.25,194,WeatherCatV1.15B25,2013-05-09 20:07:00,
2013-05-09 14:12:00,43.6,34.1,30.18,East,95,6.0,9.0,69,0.00,,,0.25,320,WeatherCatV1.15B25,2013-05-09 20:12:00,
2013-05-09 14:17:00,43.8,33.2,30.18,East,88,0.0,2.0,66,0.00,,,0.25,317,WeatherCatV1.15B25,2013-05-09 20:17:00,
2013-05-09 14:22:00,44.1,33.1,30.18,East,86,2.0,2.0,65,0.00,,,0.25,259,WeatherCatV1.15B25,2013-05-09 20:22:00,
2013-05-09 14:27:00,43.8,31.2,30.18,ESE,103,5.0,15.0,61,0.00,,,0.25,377,WeatherCatV1.15B25,2013-05-09 20:27:00,
2013-05-09 14:32:00,44.2,31.6,30.18,East,79,7.0,11.0,61,0.00,,,0.25,373,WeatherCatV1.15B25,2013-05-09 20:32:00,
2013-05-09 14:37:00,44.3,31.7,30.18,East,86,11.0,12.0,61,0.00,,,0.25,120,WeatherCatV1.15B25,2013-05-09 20:37:00,
2013-05-09 14:42:00,42.6,33.9,30.18,SE,145,5.0,7.0,71,0.00,,,0.25,67,WeatherCatV1.15B25,2013-05-09 20:42:00,
2013-05-09 14:47:00,41.3,34.3,30.19,ESE,106,11.0,12.0,76,0.00,,,0.25,39,WeatherCatV1.15B25,2013-05-09 20:47:00,
2013-05-09 14:52:00,40.8,34.2,30.19,NNE,14,9.0,12.0,77,0.00,,,0.25,106,WeatherCatV1.15B25,2013-05-09 20:52:00,
2013-05-09 14:57:00,39.8,33.2,30.19,North,0,10.0,14.0,77,0.00,,,0.25,208,WeatherCatV1.15B25,2013-05-09 20:57:00,
2013-05-09 15:02:00,39.1,33.5,30.20,NE,40,5.0,7.0,80,0.00,,,0.25,389,WeatherCatV1.15B25,2013-05-09 21:02:00,
2013-05-09 15:07:00,39.5,34.5,30.20,NNW,344,6.0,7.0,82,0.00,,,0.25,459,WeatherCatV1.15B25,2013-05-09 21:07:00,
2013-05-09 15:12:00,39.8,33.2,30.20,NNE,25,0.0,5.0,77,0.00,,,0.25,443,WeatherCatV1.15B25,2013-05-09 21:12:00,
2013-05-09 15:17:00,40.5,33.9,30.20,NNE,30,4.0,4.0,77,0.00,,,0.25,588,WeatherCatV1.15B25,2013-05-09 21:17:00,
2013-05-09 15:22:00,41.5,33.8,30.20,North,6,6.0,8.0,74,0.00,,,0.25,308,WeatherCatV1.15B25,2013-05-09 21:22:00,
2013-05-09 15:27:00,41.6,32.9,30.20,North,6,8.0,12.0,71,0.00,,,0.25,366,WeatherCatV1.15B25,2013-05-09 21:27:00,
2013-05-09 15:32:00,41.9,32.1,30.20,NE,34,5.0,10.0,68,0.00,,,0.25,399,WeatherCatV1.15B25,2013-05-09 21:32:00,
2013-05-09 15:37:00,42.5,32.0,30.20,ENE,73,0.0,5.0,66,0.00,,,0.25,517,WeatherCatV1.15B25,2013-05-09 21:37:00,
2013-05-09 15:42:00,43.5,33.7,30.20,NE,41,5.0,8.0,68,0.00,,,0.25,563,WeatherCatV1.15B25,2013-05-09 21:42:00,
2013-05-09 15:47:00,44.1,32.3,30.19,North,11,6.0,10.0,63,0.00,,,0.25,334,WeatherCatV1.15B25,2013-05-09 21:47:00,
2013-05-09 15:52:00,44.2,32.0,30.19,NE,35,4.0,13.0,62,0.00,,,0.25,442,WeatherCatV1.15B25,2013-05-09 21:52:00,
2013-05-09 15:57:00,44.8,32.6,30.19,NNE,27,11.0,11.0,62,0.00,,,0.25,908,WeatherCatV1.15B25,2013-05-09 21:57:00,
2013-05-09 16:02:00,45.2,30.9,30.19,North,6,3.0,3.0,57,0.00,,,0.25,359,WeatherCatV1.15B25,2013-05-09 22:02:00,
2013-05-09 16:07:00,45.4,31.9,30.19,East,97,5.0,7.0,59,0.00,,,0.25,141,WeatherCatV1.15B25,2013-05-09 22:07:00,
2013-05-09 16:12:00,43.8,35.0,30.19,East,90,7.0,11.0,71,0.00,,,0.25,100,WeatherCatV1.15B25,2013-05-09 22:12:00,
2013-05-09 16:17:00,41.6,34.3,30.19,ESE,112,10.0,16.0,75,0.00,,,0.25,111,WeatherCatV1.15B25,2013-05-09 22:17:00,
2013-05-09 16:22:00,40.5,34.8,30.19,ESE,117,7.0,10.0,80,0.00,,,0.25,127,WeatherCatV1.15B25,2013-05-09 22:22:00,
2013-05-09 16:27:00,40.3,34.9,30.19,East,97,4.0,12.0,81,0.00,,,0.25,153,WeatherCatV1.15B25,2013-05-09 22:27:00,
2013-05-09 16:32:00,40.3,35.6,30.20,ESE,120,9.0,10.0,83,0.00,,,0.25,201,WeatherCatV1.15B25,2013-05-09 22:32:00,
2013-05-09 16:37:00,40.5,35.8,30.20,ESE,113,5.0,7.0,83,0.00,,,0.25,287,WeatherCatV1.15B25,2013-05-09 22:37:00,
2013-05-09 16:42:00,40.8,36.0,30.20,ENE,71,5.0,13.0,83,0.00,,,0.25,318,WeatherCatV1.15B25,2013-05-09 22:42:00,
2013-05-09 16:47:00,40.9,35.2,30.20,ESE,123,6.0,12.0,80,0.00,,,0.25,341,WeatherCatV1.15B25,2013-05-09 22:47:00,
2013-05-09 16:52:00,40.8,34.8,30.20,ESE,107,6.0,10.0,79,0.00,,,0.25,348,WeatherCatV1.15B25,2013-05-09 22:52:00,
2013-05-09 16:57:00,41.1,34.1,30.20,East,85,3.0,12.0,76,0.00,,,0.25,333,WeatherCatV1.15B25,2013-05-09 22:57:00,
2013-05-09 17:02:00,41.1,33.8,30.20,ESE,116,11.0,13.0,75,0.00,,,0.25,308,WeatherCatV1.15B25,2013-05-09 23:02:00,
2013-05-09 17:07:00,40.9,33.9,30.20,ENE,66,5.0,8.0,76,0.00,,,0.25,329,WeatherCatV1.15B25,2013-05-09 23:07:00,
2013-05-09 17:12:00,41.1,33.8,30.20,East,92,1.0,8.0,75,0.00,,,0.25,246,WeatherCatV1.15B25,2013-05-09 23:12:00,
2013-05-09 17:17:00,41.2,33.9,30.20,ESE,104,1.0,6.0,75,0.00,,,0.25,290,WeatherCatV1.15B25,2013-05-09 23:17:00,
2013-05-09 17:22:00,41.3,33.3,30.20,ESE,112,8.0,10.0,73,0.00,,,0.25,248,WeatherCatV1.15B25,2013-05-09 23:22:00,
2013-05-09 17:27:00,41.1,33.5,30.20,ESE,114,6.0,8.0,74,0.00,,,0.25,222,WeatherCatV1.15B25,2013-05-09 23:27:00,
2013-05-09 17:32:00,40.9,32.9,30.20,ESE,104,5.0,8.0,73,0.00,,,0.25,174,WeatherCatV1.15B25,2013-05-09 23:32:00,
2013-05-09 17:37:00,40.9,33.3,30.20,ESE,107,3.0,7.0,74,0.00,,,0.25,56,WeatherCatV1.15B25,2013-05-09 23:37:00,
2013-05-09 17:42:00,40.5,32.9,30.20,ESE,107,3.0,6.0,74,0.00,,,0.25,49,WeatherCatV1.15B25,2013-05-09 23:42:00,
2013-05-09 17:47:00,40.3,33.3,30.20,ESE,106,2.0,5.0,76,0.00,,,0.25,39,WeatherCatV1.15B25,2013-05-09 23:47:00,
2013-05-09 17:52:00,40.2,33.6,30.20,ESE,104,2.0,3.0,77,0.00,,,0.25,46,WeatherCatV1.15B25,2013-05-09 23:52:00,
2013-05-09 17:57:00,39.6,33.9,30.20,NNE,28,0.0,6.0,80,0.00,,,0.26,109,WeatherCatV1.15B25,2013-05-09 23:57:00,
2013-05-09 18:02:00,39.8,34.1,30.20,NNE,28,0.0,0.0,80,0.00,,,0.26,387,WeatherCatV1.15B25,2013-05-10 00:02:00,
2013-05-09 18:07:00,40.5,35.1,30.20,NNE,28,0.0,1.0,81,0.00,,,0.26,405,WeatherCatV1.15B25,2013-05-10 00:07:00,
2013-05-09 18:12:00,40.6,34.3,30.20,NNE,28,3.0,5.0,78,0.00,,,0.26,303,WeatherCatV1.15B25,2013-05-10 00:12:00,
2013-05-09 18:17:00,40.6,34.0,30.20,SE,138,1.0,8.0,77,0.00,,,0.27,276,WeatherCatV1.15B25,2013-05-10 00:17:00,
2013-05-09 18:22:00,41.3,35.0,30.20,NE,56,6.0,6.0,78,0.00,,,0.27,238,WeatherCatV1.15B25,2013-05-10 00:22:00,
2013-05-09 18:27:00,41.9,34.6,30.20,NNE,23,4.0,7.0,75,0.00,,,0.27,230,WeatherCatV1.15B25,2013-05-10 00:27:00,
2013-05-09 18:32:00,42.1,34.1,30.20,ENE,76,3.0,8.0,73,0.00,,,0.27,153,WeatherCatV1.15B25,2013-05-10 00:32:00,
2013-05-09 18:37:00,41.9,33.9,30.20,ENE,76,5.0,5.0,73,0.00,,,0.27,76,WeatherCatV1.15B25,2013-05-10 00:37:00,
2013-05-09 18:42:00,41.2,33.6,30.20,East,95,3.0,5.0,74,0.00,,,0.27,55,WeatherCatV1.15B25,2013-05-10 00:42:00,
2013-05-09 18:47:00,40.6,33.3,30.20,East,100,6.0,10.0,75,0.00,,,0.27,51,WeatherCatV1.15B25,2013-05-10 00:47:00,
2013-05-09 18:52:00,40.2,33.6,30.20,East,100,5.0,7.0,77,0.00,,,0.27,49,WeatherCatV1.15B25,2013-05-10 00:52:00,
2013-05-09 18:57:00,39.9,33.3,30.20,ESE,103,4.0,7.0,77,0.00,,,0.27,49,WeatherCatV1.15B25,2013-05-10 00:57:00,
2013-05-09 19:02:00,39.6,33.0,30.20,ESE,103,4.0,6.0,77,0.00,,,0.27,48,WeatherCatV1.15B25,2013-05-10 01:02:00,
2013-05-09 19:07:00,39.5,32.9,30.20,ESE,116,5.0,8.0,77,0.00,,,0.27,46,WeatherCatV1.15B25,2013-05-10 01:07:00,
2013-05-09 19:12:00,39.5,32.2,30.20,ESE,116,3.0,5.0,75,0.00,,,0.27,46,WeatherCatV1.15B25,2013-05-10 01:12:00,
2013-05-09 19:17:00,39.6,32.3,30.20,ESE,116,3.0,4.0,75,0.00,,,0.27,46,WeatherCatV1.15B25,2013-05-10 01:17:00,
2013-05-09 19:22:00,39.6,32.7,30.20,ESE,112,2.0,6.0,76,0.00,,,0.27,44,WeatherCatV1.15B25,2013-05-10 01:22:00,
2013-05-09 19:27:00,39.6,32.7,30.20,ESE,113,0.0,3.0,76,0.00,,,0.27,42,WeatherCatV1.15B25,2013-05-10 01:27:00,
2013-05-09 19:32:00,39.5,32.6,30.20,ESE,110,0.0,3.0,76,0.00,,,0.27,39,WeatherCatV1.15B25,2013-05-10 01:32:00,
2013-05-09 19:37:00,39.3,32.4,30.20,ESE,109,0.0,1.0,76,0.00,,,0.27,37,WeatherCatV1.15B25,2013-05-10 01:37:00,
2013-05-09 19:42:00,39.2,32.6,30.20,ESE,110,0.0,0.0,77,0.00,,,0.27,33,WeatherCatV1.15B25,2013-05-10 01:42:00,
2013-05-09 19:47:00,38.9,32.3,30.21,ESE,110,0.0,0.0,77,0.00,,,0.27,25,WeatherCatV1.15B25,2013-05-10 01:47:00,
2013-05-09 19:52:00,38.8,32.5,30.21,ESE,110,0.0,0.0,78,0.00,,,0.27,18,WeatherCatV1.15B25,2013-05-10 01:52:00,
2013-05-09 19:57:00,38.6,32.7,30.21,ESE,109,3.0,3.0,79,0.00,,,0.27,11,WeatherCatV1.15B25,2013-05-10 01:57:00,
2013-05-09 20:02:00,38.3,32.7,30.21,ESE,109,0.0,0.0,80,0.00,,,0.27,5,WeatherCatV1.15B25,2013-05-10 02:02:00,
2013-05-09 20:07:00,38.2,32.6,30.21,ESE,109,0.0,0.0,80,0.00,,,0.27,0,WeatherCatV1.15B25,2013-05-10 02:07:00,
2013-05-09 20:12:00,37.9,32.6,30.21,ENE,71,3.0,5.0,81,0.00,,,0.27,0,WeatherCatV1.15B25,2013-05-10 02:12:00,
2013-05-09 20:17:00,37.3,32.3,30.21,ENE,71,0.0,0.0,82,0.00,,,0.27,0,WeatherCatV1.15B25,2013-05-10 02:17:00,
2013-05-09 20:22:00,37.0,32.3,30.21,ENE,71,1.0,3.0,83,0.00,,,0.27,0,WeatherCatV1.15B25,2013-05-10 02:22:00,
2013-05-09 20:27:00,36.8,32.4,30.21,ENE,71,0.0,0.0,84,0.00,,,0.27,0,WeatherCatV1.15B25,2013-05-10 02:27:00,
2013-05-09 20:32:00,36.6,32.2,30.22,ENE,71,0.0,0.0,84,0.00,,,0.27,0,WeatherCatV1.15B25,2013-05-10 02:32:00,
2013-05-09 20:37:00,36.3,31.9,30.22,ENE,71,0.0,0.0,84,0.00,,,0.27,0,WeatherCatV1.15B25,2013-05-10 02:37:00,
2013-05-09 20:42:00,36.0,31.9,30.22,ENE,71,0.0,0.0,85,0.00,,,0.27,0,WeatherCatV1.15B25,2013-05-10 02:42:00,
2013-05-09 20:47:00,35.8,32.0,30.22,ENE,71,0.0,0.0,86,0.00,,,0.27,0,WeatherCatV1.15B25,2013-05-10 02:47:00,
2013-05-09 20:52:00,35.6,32.1,30.22,ENE,71,0.0,0.0,87,0.00,,,0.27,0,WeatherCatV1.15B25,2013-05-10 02:52:00,
2013-05-09 20:57:00,35.6,32.4,30.22,ENE,71,0.0,0.0,88,0.00,,,0.27,0,WeatherCatV1.15B25,2013-05-10 02:57:00,
2013-05-09 21:02:00,35.8,32.9,30.23,ENE,71,0.0,0.0,89,0.00,,,0.27,0,WeatherCatV1.15B25,2013-05-10 03:02:00,
2013-05-09 21:07:00,35.8,32.9,30.23,ENE,71,0.0,0.0,89,0.00,,,0.27,0,WeatherCatV1.15B25,2013-05-10 03:07:00,
2013-05-09 21:12:00,35.8,32.9,30.23,ENE,71,0.0,0.0,89,0.00,,,0.27,0,WeatherCatV1.15B25,2013-05-10 03:12:00,
2013-05-09 21:17:00,35.8,32.9,30.23,ENE,71,0.0,0.0,89,0.00,,,0.27,0,WeatherCatV1.15B25,2013-05-10 03:17:00,
2013-05-09 21:22:00,35.8,32.9,30.23,ENE,71,0.0,0.0,89,0.00,,,0.27,0,WeatherCatV1.15B25,2013-05-10 03:22:00,
2013-05-09 21:27:00,35.6,32.7,30.23,ENE,71,0.0,0.0,89,0.00,,,0.27,0,WeatherCatV1.15B25,2013-05-10 03:27:00,
2013-05-09 21:32:00,35.5,32.6,30.23,ENE,71,0.0,0.0,89,0.00,,,0.27,0,WeatherCatV1.15B25,2013-05-10 03:32:00,
2013-05-09 21:37:00,35.3,32.4,30.23,ENE,71,0.0,0.0,89,0.00,,,0.27,0,WeatherCatV1.15B25,2013-05-10 03:37:00,
2013-05-09 21:42:00,35.2,32.3,30.23,ENE,71,4.0,4.0,89,0.00,,,0.27,0,WeatherCatV1.15B25,2013-05-10 03:42:00,
2013-05-09 21:47:00,35.3,32.4,30.23,ENE,71,2.0,5.0,89,0.00,,,0.27,0,WeatherCatV1.15B25,2013-05-10 03:47:00,
2013-05-09 21:52:00,35.5,32.9,30.23,NE,51,4.0,5.0,90,0.00,,,0.27,0,WeatherCatV1.15B25,2013-05-10 03:52:00,
2013-05-09 21:57:00,35.5,32.6,30.23,NE,51,2.0,4.0,89,0.00,,,0.27,0,WeatherCatV1.15B25,2013-05-10 03:57:00,
2013-05-09 22:01:00,35.5,32.6,30.24,NE,51,0.0,3.0,89,0.00,,,0.27,0,WeatherCatV1.15B25,2013-05-10 04:01:00,
2013-05-09 22:05:00,35.5,32.6,30.24,NE,52,1.0,2.0,89,0.00,,,0.00,0,WeatherCatV1.15B25,2013-05-10 04:05:00,
2013-05-09 22:06:00,35.5,32.6,30.24,NE,51,0.0,0.0,89,0.00,,,0.27,0,WeatherCatV1.15B25,2013-05-10 04:06:00,
2013-05-09 22:10:00,35.5,32.6,30.24,NE,52,1.0,2.0,89,0.00,,,0.00,0,WeatherCatV1.15B25,2013-05-10 04:10:00,
2013-05-09 22:15:00,35.6,32.7,30.24,NE,45,0.0,2.0,89,0.00,,,0.00,0,WeatherCatV1.15B25,2013-05-10 04:15:00,
2013-05-09 22:20:00,35.6,32.7,30.24,NE,45,0.0,2.0,89,0.00,,,0.00,0,WeatherCatV1.15B25,2013-05-10 04:20:00,
2013-05-09 22:25:00,35.6,32.7,30.24,NE,45,0.0,2.0,89,0.00,,,0.00,0,WeatherCatV1.15B25,2013-05-10 04:25:00,
2013-05-09 22:30:00,36.0,32.8,30.25,NE,45,0.0,3.0,88,0.00,,,0.00,0,WeatherCatV1.15B25,2013-05-10 04:30:00,
2013-05-09 22:35:00,36.0,32.8,30.25,NE,45,0.0,3.0,88,0.00,,,0.00,0,WeatherCatV1.15B25,2013-05-10 04:35:00,
2013-05-09 22:40:00,36.0,32.8,30.25,NE,45,0.0,3.0,88,0.00,,,0.00,0,WeatherCatV1.15B25,2013-05-10 04:40:00,
2013-05-09 22:45:00,36.0,32.8,30.25,NE,45,0.0,3.0,88,0.00,,,0.00,0,WeatherCatV1.15B25,2013-05-10 04:45:00,
2013-05-09 22:50:00,36.0,32.8,30.25,NE,45,0.0,3.0,88,0.00,,,0.00,0,WeatherCatV1.15B25,2013-05-10 04:50:00,
2013-05-09 22:55:00,36.0,32.8,30.25,NE,45,0.0,3.0,88,0.00,,,0.00,0,WeatherCatV1.15B25,2013-05-10 04:55:00,
2013-05-09 23:00:00,36.0,32.8,30.25,NE,45,0.0,3.0,88,0.00,,,0.00,0,WeatherCatV1.15B25,2013-05-10 05:00:00,
2013-05-09 23:05:00,36.0,33.1,30.25,NNE,22,1.0,5.0,89,0.00,,,0.00,0,WeatherCatV1.15B25,2013-05-10 05:05:00,
2013-05-09 23:10:00,36.0,33.1,30.25,NNE,22,1.0,5.0,89,0.00,,,0.00,0,WeatherCatV1.15B25,2013-05-10 05:10:00,
2013-05-09 23:15:00,36.0,33.1,30.25,NNE,22,1.0,5.0,89,0.00,,,0.00,0,WeatherCatV1.15B25,2013-05-10 05:15:00,
2013-05-09 23:20:00,35.8,32.6,30.24,NNE,22,2.0,6.0,88,0.00,,,0.00,0,WeatherCatV1.15B25,2013-05-10 05:20:00,
2013-05-09 23:25:00,35.8,32.6,30.24,NNE,22,2.0,6.0,88,0.00,,,0.00,0,WeatherCatV1.15B25,2013-05-10 05:25:00,
2013-05-09 23:30:00,35.8,32.6,30.24,NNE,22,2.0,6.0,88,0.00,,,0.00,0,WeatherCatV1.15B25,2013-05-10 05:30:00,
2013-05-09 23:35:00,34.6,31.1,30.24,North,0,0.0,3.0,87,0.00,,,0.00,0,WeatherCatV1.15B25,2013-05-10 05:35:00,
2013-05-09 23:40:00,34.6,31.1,30.24,North,0,0.0,3.0,87,0.00,,,0.00,0,WeatherCatV1.15B25,2013-05-10 05:40:00,
2013-05-09 23:45:00,34.6,31.1,30.24,North,0,0.0,3.0,87,0.00,,,0.00,0,WeatherCatV1.15B25,2013-05-10 05:45:00,
2013-05-09 23:50:00,34.0,30.8,30.24,North,0,0.0,0.0,88,0.00,,,0.00,0,WeatherCatV1.15B25,2013-05-10 05:50:00,
2013-05-09 23:55:00,34.0,30.8,30.24,North,0,0.0,0.0,88,0.00,,,0.00,0,WeatherCatV1.15B25,2013-05-10 05:55:00,